STARLINK-2698, 48458

Orbit data source: Space-Track

STARLINK-2698, 48458 is a payload satellite owned by SpaceX/Seattle (US) in LEO that was launched on Sun, 09 May 2021 UTC via an FALCON 9 launch vehicle from the Air Force Eastern Test Range (AFETR). Payload-class satellites include a variety of spacecraft equipped with specific instruments for various scientific and technological missions. These include communications satellites like Starlink; space stations such as the ISS; scientific satellites like the Hubble; Earth observation satellites from companies like Planet Labs, Umbra, and HawkEye 360; GPS; miniature CubeSats for education and research; and military/defense satellites.

Loading next visibility...
Identifier
48458, 2021-040AG
Orbit
LEO
Country
Flag of USUS
Related business
Manufacturer
SpaceX/Seattle
Mission
Operational Commercial Communications
Bus & Motor
STARLINK, Unknown motor
Mass
260 kg wet, ~248 kg dry
Launch date (UTC)
2021-05-09 (5 years ago)
Launch vehicle
FALCON 9
Launch site
Air Force Eastern Test Range (AFETR)
Object type
Payload
Rocket body
Debris
Shape & HBR
Box + 1 Pan, 10.1 m
Radar Cross Section
13.562 m², Large (>1 m²)

Expand to show TLE details & history
Last TLE update: 3 days ago

TLE from 3 days ago
0 STARLINK-2698
1 48458U 21040AG  26170.91526562  .00003000  00000-0  10840-3 0  9997
2 48458  53.1615  63.1959 0001243  77.3634 282.7507 15.31695084283056
Epoch: 2026-06-19T21:57Z
TLE epoch observation values (Epoch: 2026-06-19T21:57:58.949Z)
Latitude
0.00002°
Longitude
-174.4371°
Altitude
471.467 km
Speed
7.632 km/s
True Right ascension
04h 12m 47s
True Declination
0° 00' 00"
Sunlit
Object was in daylight at epoch
Visualization orbit readout
Latitude
Unknown
Longitude
Unknown
Altitude
Unknown
Speed
Unknown
Apparent Right ascension
Unknown
Apparent Declination
Unknown
Sunlit
N/A
Visualization observer readout
Local Sidereal Time
21:24:53
Azimuth
Unknown
Elevation
Unknown
Doppler factor
Unknown
Orbital elements
Apogee altitude
471.862 km
Perigee altitude
470.16 km
Semi-major axis
6,849.148 km
Eccentricity
0.00012
Inclination
53.1615°
RAAN
63.1959°
Arg. of periapsis
77.3634°
True anomaly
282.73681°
Mean anomaly
282.7507°
Eccentric anomaly
282.74375°
Mean motion
3.82903 °/min
Orbital period
94.02 mins
BSTAR
0.0001084
Loading maneuver chart data...
Computing Atmospheric mass density...

Documentation

Showing up to 5 results
|